Flag for Germany Weather past 2 weeks in Bautzen, Saxony, Germany

Now
78 °F

Passing clouds.


Feels Like: 80 °F
Forecast: 71 / 96 °F
Wind: 1 mph from West

Location: Goerlitz

Current Time: Jul 4, 2015 at 10:59:29 PM

Latest Report: Jul 4, 2015 at 10:00 PM


Visibility: 16 mi

Pressure: 30.09 "Hg

Humidity: 58%

Dew point: 62 °F

Location of BautzenLocation

Historic Weather in Bautzen — Graph

°F

Bautzen temperature yesterday

Maximum temperature yesterday: 87 °F (at 4:00 PM)
Minimum temperature yesterday: 58 °F (at 5:00 AM)
Average temperature yesterday: 76 °F

Past Weeks' High & Low Weather Summary

 TemperatureHumidityPressure
High93 °F (Jul 4, 3:00 PM)98% (Jun 25, 5:00 AM)30.30 "Hg (Jun 25, 5:00 AM)
Low41 °F (Jun 25, 4:00 AM)26% (Jul 4, 5:00 PM)29.66 "Hg (Jun 23, 7:00 AM)
Average63 °F70%30.09 "Hg
* Reported Jun 19 10:00 PM — Jul 4 10:00 PM, Bautzen, Weather by CustomWeather, © 2015

Note: Actual official high and low records may vary slightly from our data, if they occured in-between our weather recording intervals... More about our weather records

Advertising

Bautzen weather history for previous 24 hours

 ConditionsComfort  
Time TempWeatherWind HumidityBarometerVisibility
10:00 PM
Sat, Jul 4
78 °FPassing clouds.1 mph58%30.09 "Hg16 mi
9:00 PM84 °FOvercast.2 mph41%30.08 "Hg25 mi
8:00 PM86 °FPassing clouds.2 mph42%30.07 "Hg28 mi
7:00 PM92 °FPassing clouds.2 mph31%30.07 "Hg28 mi
6:00 PM92 °FPassing clouds.3 mph28%30.09 "Hg25 mi
5:00 PM92 °FPassing clouds.1 mph26%30.09 "Hg25 mi
4:00 PM92 °FPassing clouds.2 mph27%30.11 "Hg25 mi
3:00 PM93 °FPassing clouds.1 mph27%30.12 "Hg25 mi
2:00 PM90 °FPassing clouds.3 mph29%30.13 "Hg22 mi
1:00 PM89 °FPassing clouds.3 mph34%30.14 "Hg22 mi
12:00 PM88 °FSunny.3 mph40%30.16 "Hg22 mi
11:00 AM86 °FSunny.5 mph42%30.17 "Hg25 mi
10:00 AM82 °FSunny.5 mph48%30.18 "Hg25 mi
9:00 AM80 °FPassing clouds.5 mph50%30.18 "Hg28 mi
8:00 AM77 °FPassing clouds.2 mph53%30.19 "Hg31 mi
7:00 AM74 °FScattered clouds.3 mph57%30.20 "Hg31 mi
6:00 AM71 °FScattered clouds.5 mph60%30.21 "Hg31 mi
5:00 AM67 °FPartly sunny.2 mph69%30.21 "Hg22 mi
4:00 AM66 °FPassing clouds.1 mph76%30.22 "Hg16 mi
3:00 AM65 °FPassing clouds.1 mph83%30.23 "Hg19 mi
2:00 AM65 °FPassing clouds.2 mph76%30.24 "Hg22 mi
1:00 AM69 °FPassing clouds.1 mph63%30.24 "Hg19 mi
12:00 AM70 °FPassing clouds.2 mph59%30.25 "Hg19 mi
11:00 PM
Fri, Jul 3
71 °FPassing clouds.2 mph56%30.25 "Hg19 mi
10:00 PM76 °FPassing clouds.3 mph46%30.25 "Hg22 mi
Weather by CustomWeather, © 2015

See weather overviewHow to use our weather pages